Location: Saint-Restitut
(44.3351°N, 4.7915°E)
Time: 15:35:52
(UTC+00:00)

CSL-04 Debris - Pass Details

Date: 26 February 2024
Orbit: 824 x 843 km, 98.8° (Epoch: 21 April)

Event Time Altitude Azimuth Distance (km) Brightness Sun altitude
Exits shadow 21:14:35 10° 249° (WSW) 2,446 6.9 -40.4°
Reaches altitude 10° 21:14:43 10° 251° (WSW) 2,427 6.9 -40.4°
Maximum altitude 21:16:42 12° 272° (W) 2,290 6.9 -40.7°
Drops below altitude 10° 21:18:41 10° 294° (WNW) 2,431 7.2 -41.0°
Sets 21:22:47 0° 325° (NW) 3,370 8.1 -41.6°
